Location: Nelson
(41.2830°S, 173.2830°E)
Time: 04:40:54
(UTC+13:00)

Cosmos 1242 Rocket - Pass Details

Date: 24 January 2019
Orbit: 450 x 488 km, 81.2° (Epoch: 17 October)

Event Time Altitude Azimuth Distance (km) Brightness Sun altitude
Rises 22:57:01 0° 198° (SSW) 2,606 7.5 -18.8°
Maximum altitude 23:02:44 37° 274° (W) 789 3.9 -19.5°
Enters shadow 23:04:26 24° 325° (NW) 1,076 4.1 -19.7°
